owner,sensor,date,latitude,longitude,vertical_datum,wind_speed,wind_to_direction,wind_speed_of_gust,qcFlag 
TABS,ioos:station:wmo:42044:1,2015-03-16T00:00:00Z,26.1914,-97.0507,0.0,0.313049517,333.4348005,0.71,'11111222,11111222,11111222' 
TABS,ioos:station:wmo:42044:1,2015-03-16T00:30:00Z,26.1914,-97.0507,0.0,0.600333241,119.9819902,1.13,'11111222,11111222,11111222' 
TABS,ioos:station:wmo:42044:1,2015-03-16T01:00:00Z,26.1914,-97.0507,0.0,0.778331549,312.9173344,1.48,'11111222,11111222,11111222' 
TABS,ioos:station:wmo:42044:1,2015-03-16T01:30:00Z,26.1914,-97.0507,0.0,0.170880075,339.4437924,1.45,'11111222,11111222,11111222' 
TABS,ioos:station:wmo:42044:1,2015-03-16T02:00:00Z,26.1914,-97.0507,0.0,0.853756406,256.4520927,5.89,'11111222,11111222,11111222' 
TABS,ioos:station:wmo:42044:1,2015-03-16T02:30:00Z,26.1914,-97.0507,0.0,7.237465026,43.15207837,10.02,'11111222,11111222,11111222' 
TABS,ioos:station:wmo:42044:1,2015-03-16T03:00:00Z,26.1914,-97.0507,0.0,7.552443313,12.61908233,8.86,'11111222,11111222,11111222' 
TABS,ioos:station:wmo:42044:1,2015-03-16T03:30:00Z,26.1914,-97.0507,0.0,6.486801986,6.10586911,7.72,'11111222,11111222,11111222' 
TABS,ioos:station:wmo:42044:1,2015-03-16T04:00:00Z,26.1914,-97.0507,0.0,6.719650289,356.9287499,8.94,'11111222,11111222,11111222' 
TABS,ioos:station:wmo:42044:1,2015-03-16T04:30:00Z,26.1914,-97.0507,0.0,6.121380563,358.7829082,7.27,'11111222,11111222,11111222' 
TABS,ioos:station:wmo:42044:1,2015-03-16T05:00:00Z,26.1914,-97.0507,0.0,6.466235381,351.1930174,7.43,'11111222,11111222,11111222' 
TABS,ioos:station:wmo:42044:1,2015-03-16T05:30:00Z,26.1914,-97.0507,0.0,6.929884559,356.9392084,8.22,'11111222,11111222,11111222' 
TABS,ioos:station:wmo:42044:1,2015-03-16T06:00:00Z,26.1914,-97.0507,0.0,5.833455237,349.7301071,6.4,'11111222,11111222,11111222' 
TABS,ioos:station:wmo:42044:1,2015-03-16T06:30:00Z,26.1914,-97.0507,0.0,5.688101617,344.0821033,6.69,'11111222,11111222,11111222' 
TABS,ioos:station:wmo:42044:1,2015-03-16T07:00:00Z,26.1914,-97.0507,0.0,5.284013626,351.0722808,6.46,'11111222,11111222,11111222' 
TABS,ioos:station:wmo:42044:1,2015-03-16T07:30:00Z,26.1914,-97.0507,0.0,5.029373718,349.8070517,6.04,'11111222,11111222,11111222' 
TABS,ioos:station:wmo:42044:1,2015-03-16T08:00:00Z,26.1914,-97.0507,0.0,5.010359269,0.685932135,5.82,'11111222,11111222,11111222' 
TABS,ioos:station:wmo:42044:1,2015-03-16T08:30:00Z,26.1914,-97.0507,0.0,4.282289107,340.6340173,5.04,'11111222,11111222,11111222' 
TABS,ioos:station:wmo:42044:1,2015-03-16T09:00:00Z,26.1914,-97.0507,0.0,4.314313387,335.6328283,5.2,'11111222,11111222,11111222' 
TABS,ioos:station:wmo:42044:1,2015-03-16T09:30:00Z,26.1914,-97.0507,0.0,4.653525545,338.1755677,5.58,'11111222,11111222,11111222' 
TABS,ioos:station:wmo:42044:1,2015-03-16T10:00:00Z,26.1914,-97.0507,0.0,4.780167361,338.9106945,5.63,'11111222,11111222,11111222' 
TABS,ioos:station:wmo:42044:1,2015-03-16T10:30:00Z,26.1914,-97.0507,0.0,6.017815218,337.0137825,7.12,'11111222,11111222,11111222' 
TABS,ioos:station:wmo:42044:1,2015-03-16T11:00:00Z,26.1914,-97.0507,0.0,6.365665715,321.1854469,7.37,'11111222,11111222,11111222' 
TABS,ioos:station:wmo:42044:1,2015-03-16T11:30:00Z,26.1914,-97.0507,0.0,6.562537619,323.8633782,8.03,'11111222,11111222,11111222' 
TABS,ioos:station:wmo:42044:1,2015-03-16T12:00:00Z,26.1914,-97.0507,0.0,7.228748163,322.3056372,8.86,'11111222,11111222,11111222' 
TABS,ioos:station:wmo:42044:1,2015-03-16T12:30:00Z,26.1914,-97.0507,0.0,8.410023781,334.805977,10.38,'11111222,11111222,11111222' 
TABS,ioos:station:wmo:42044:1,2015-03-16T13:00:00Z,26.1914,-97.0507,0.0,8.562733209,339.4907817,9.91,'11111222,11111222,11111222' 
TABS,ioos:station:wmo:42044:1,2015-03-16T13:30:00Z,26.1914,-97.0507,0.0,8.307695228,345.1439307,10.05,'11111222,11111222,11111222' 
TABS,ioos:station:wmo:42044:1,2015-03-16T14:00:00Z,26.1914,-97.0507,0.0,8.081249903,344.570594,9.42,'11111222,11111222,11111222' 
TABS,ioos:station:wmo:42044:1,2015-03-16T14:30:00Z,26.1914,-97.0507,0.0,7.531600096,343.730494,9.02,'11111222,11111222,11111222' 
TABS,ioos:station:wmo:42044:1,2015-03-16T15:00:00Z,26.1914,-97.0507,0.0,6.908675705,353.9343658,10.24,'11111222,11111222,11111222' 
TABS,ioos:station:wmo:42044:1,2015-03-16T15:30:00Z,26.1914,-97.0507,0.0,7.234818588,343.8695016,9.22,'11111222,11111222,11111222' 
TABS,ioos:station:wmo:42044:1,2015-03-16T16:00:00Z,26.1914,-97.0507,0.0,6.507480311,343.2078185,7.95,'11111222,11111222,11111222' 
TABS,ioos:station:wmo:42044:1,2015-03-16T16:30:00Z,26.1914,-97.0507,0.0,6.94208182,345.1428379,8.58,'11111222,11111222,11111222' 
TABS,ioos:station:wmo:42044:1,2015-03-16T17:00:00Z,26.1914,-97.0507,0.0,6.420070093,347.5871704,7.5,'11111222,11111222,11111222' 
TABS,ioos:station:wmo:42044:1,2015-03-16T17:30:00Z,26.1914,-97.0507,0.0,6.056418083,346.5372046,7.03,'11111222,11111222,11111222' 
TABS,ioos:station:wmo:42044:1,2015-03-16T18:00:00Z,26.1914,-97.0507,0.0,5.083719111,344.1318365,5.85,'11111222,11111222,11111222' 
TABS,ioos:station:wmo:42044:1,2015-03-16T18:30:00Z,26.1914,-97.0507,0.0,5.22027777,334.711099,6.5,'11111222,11111222,11111222' 
TABS,ioos:station:wmo:42044:1,2015-03-16T19:00:00Z,26.1914,-97.0507,0.0,4.565084884,335.6805378,5.22,'11111222,11111222,11111222' 
TABS,ioos:station:wmo:42044:1,2015-03-16T19:30:00Z,26.1914,-97.0507,0.0,4.659205941,324.4336042,5.48,'11111222,11111222,11111222' 
TABS,ioos:station:wmo:42044:1,2015-03-16T20:00:00Z,26.1914,-97.0507,0.0,5.36209847,333.5303728,6.26,'11111222,11111222,11111222' 
TABS,ioos:station:wmo:42044:1,2015-03-16T20:30:00Z,26.1914,-97.0507,0.0,4.799802079,334.7161297,5.72,'11111222,11111222,11111222' 
TABS,ioos:station:wmo:42044:1,2015-03-16T21:00:00Z,26.1914,-97.0507,0.0,4.846792754,331.2667486,5.73,'11111222,11111222,11111222' 
TABS,ioos:station:wmo:42044:1,2015-03-16T21:30:00Z,26.1914,-97.0507,0.0,4.261983106,349.4544832,5.25,'11111222,11111222,11111222' 
TABS,ioos:station:wmo:42044:1,2015-03-16T22:00:00Z,26.1914,-97.0507,0.0,3.799605243,355.9249259,4.22,'11111222,11111222,11111222' 
TABS,ioos:station:wmo:42044:1,2015-03-16T22:30:00Z,26.1914,-97.0507,0.0,3.112073264,350.5677566,3.56,'11111222,11111222,11111222' 
TABS,ioos:station:wmo:42044:1,2015-03-16T23:00:00Z,26.1914,-97.0507,0.0,2.804014979,346.8061012,3.22,'11111222,11111222,11111222' 
TABS,ioos:station:wmo:42044:1,2015-03-16T23:30:00Z,26.1914,-97.0507,0.0,2.194948747,351.3528781,2.51,'11111222,11111222,11111222' 
TABS,ioos:station:wmo:42044:1,2015-03-17T00:00:00Z,26.1914,-97.0507,0.0,1.574579309,355.6290027,1.91,'11111222,11111222,11111222' 
TABS,ioos:station:wmo:42044:1,2015-03-17T00:30:00Z,26.1914,-97.0507,0.0,1.808977612,5.710369325,2.17,'11111222,11111222,11111222' 
TABS,ioos:station:wmo:42044:1,2015-03-17T01:00:00Z,26.1914,-97.0507,0.0,2.116246677,303.2394425,2.56,'11111222,11111222,11111222' 
TABS,ioos:station:wmo:42044:1,2015-03-17T01:30:00Z,26.1914,-97.0507,0.0,2.403934275,299.1239854,2.92,'11111222,11111222,11111222' 
TABS,ioos:station:wmo:42044:1,2015-03-17T02:00:00Z,26.1914,-97.0507,0.0,2.083386666,308.9603669,2.46,'11111222,11111222,11111222' 
TABS,ioos:station:wmo:42044:1,2015-03-17T02:30:00Z,26.1914,-97.0507,0.0,1.820823989,295.016835,3.64,'11111222,11111222,11111222' 
TABS,ioos:station:wmo:42044:1,2015-03-17T03:00:00Z,26.1914,-97.0507,0.0,1.580696049,348.6898835,1.79,'11111222,11111222,11111222' 
TABS,ioos:station:wmo:42044:1,2015-03-17T03:30:00Z,26.1914,-97.0507,0.0,2.450183667,293.3213563,3.29,'11111222,11111222,11111222' 
TABS,ioos:station:wmo:42044:1,2015-03-17T04:00:00Z,26.1914,-97.0507,0.0,0.453431362,311.4235688,1.22,'11111222,11111222,11111222' 
TABS,ioos:station:wmo:42044:1,2015-03-17T04:30:00Z,26.1914,-97.0507,0.0,0.540370243,321.0088867,0.92,'11111222,11111222,11111222' 
TABS,ioos:station:wmo:42044:1,2015-03-17T05:00:00Z,26.1914,-97.0507,0.0,0.876641318,334.3117062,1.65,'11111222,11111222,11111222' 
TABS,ioos:station:wmo:42044:1,2015-03-17T05:30:00Z,26.1914,-97.0507,0.0,1.238587906,21.80114805,2.31,'11111222,11111222,11111222' 
TABS,ioos:station:wmo:42044:1,2015-03-17T06:00:00Z,26.1914,-97.0507,0.0,1.710584695,319.9798827,2.03,'11111222,11111222,11111222' 
TABS,ioos:station:wmo:42044:1,2015-03-17T06:30:00Z,26.1914,-97.0507,0.0,1.669790406,342.2159427,2.3,'11111222,11111222,11111222' 
TABS,ioos:station:wmo:42044:1,2015-03-17T07:00:00Z,26.1914,-97.0507,0.0,1.900421006,1.2058355,2.57,'11111222,11111222,11111222' 
TABS,ioos:station:wmo:42044:1,2015-03-17T07:30:00Z,26.1914,-97.0507,0.0,2.567975857,350.1340057,3.0,'11111222,11111222,11111222' 
TABS,ioos:station:wmo:42044:1,2015-03-17T08:00:00Z,26.1914,-97.0507,0.0,2.094039159,356.440531,2.51,'11111222,11111222,11111222' 
TABS,ioos:station:wmo:42044:1,2015-03-17T08:30:00Z,26.1914,-97.0507,0.0,1.810441935,1.265785581,2.22,'11111222,11111222,11111222' 
TABS,ioos:station:wmo:42044:1,2015-03-17T09:00:00Z,26.1914,-97.0507,0.0,1.999649969,334.8444759,2.58,'11111222,11111222,11111222' 
TABS,ioos:station:wmo:42044:1,2015-03-17T09:30:00Z,26.1914,-97.0507,0.0,2.370232056,354.6740614,3.05,'11111222,11111222,11111222' 
TABS,ioos:station:wmo:42044:1,2015-03-17T10:00:00Z,26.1914,-97.0507,0.0,1.913164917,356.7036813,2.38,'11111222,11111222,11111222' 
TABS,ioos:station:wmo:42044:1,2015-03-17T10:30:00Z,26.1914,-97.0507,0.0,2.323101375,357.0388603,2.74,'11111222,11111222,11111222' 
TABS,ioos:station:wmo:42044:1,2015-03-17T11:00:00Z,26.1914,-97.0507,0.0,1.946175737,39.5791017,2.32,'11111222,11111222,11111222' 
TABS,ioos:station:wmo:42044:1,2015-03-17T11:30:00Z,26.1914,-97.0507,0.0,2.394013367,342.2460417,2.98,'11111222,11111222,11111222' 
TABS,ioos:station:wmo:42044:1,2015-03-17T12:00:00Z,26.1914,-97.0507,0.0,1.994893481,334.4624149,2.41,'11111222,11111222,11111222' 
TABS,ioos:station:wmo:42044:1,2015-03-17T12:30:00Z,26.1914,-97.0507,0.0,2.43977458,351.0393927,2.98,'11111222,11111222,11111222' 
TABS,ioos:station:wmo:42044:1,2015-03-17T13:00:00Z,26.1914,-97.0507,0.0,2.687824399,347.1010686,3.08,'11111222,11111222,11111222' 
TABS,ioos:station:wmo:42044:1,2015-03-17T13:30:00Z,26.1914,-97.0507,0.0,2.399270723,335.891875,2.79,'11111222,11111222,11111222' 
TABS,ioos:station:wmo:42044:1,2015-03-17T14:00:00Z,26.1914,-97.0507,0.0,2.120848887,358.3786474,2.59,'11111222,11111222,11111222' 
TABS,ioos:station:wmo:42044:1,2015-03-17T14:30:00Z,26.1914,-97.0507,0.0,2.367804891,12.68604528,2.96,'11111222,11111222,11111222' 
TABS,ioos:station:wmo:42044:1,2015-03-17T15:00:00Z,26.1914,-97.0507,0.0,3.497213176,16.10267703,4.1,'11111222,11111222,11111222' 
TABS,ioos:station:wmo:42044:1,2015-03-17T15:30:00Z,26.1914,-97.0507,0.0,2.483646513,20.25878082,2.99,'11111222,11111222,11111222' 
TABS,ioos:station:wmo:42044:1,2015-03-17T16:00:00Z,26.1914,-97.0507,0.0,1.20503112,5.237253361,1.55,'11111222,11111222,11111222' 
TABS,ioos:station:wmo:42044:1,2015-03-17T16:30:00Z,26.1914,-97.0507,0.0,1.315294644,351.2536477,1.68,'11111222,11111222,11111222' 
TABS,ioos:station:wmo:42044:1,2015-03-17T17:00:00Z,26.1914,-97.0507,0.0,1.450551619,303.470886,1.82,'11111222,11111222,11111222' 
TABS,ioos:station:wmo:42044:1,2015-03-17T17:30:00Z,26.1914,-97.0507,0.0,1.118257573,308.0995827,1.43,'11111222,11111222,11111222' 
TABS,ioos:station:wmo:42044:1,2015-03-17T18:00:00Z,26.1914,-97.0507,0.0,2.016134916,10.86382406,2.45,'11111222,11111222,11111222' 
TABS,ioos:station:wmo:42044:1,2015-03-17T18:30:00Z,26.1914,-97.0507,0.0,2.191278166,32.89204237,2.57,'11111222,11111222,11111222' 
TABS,ioos:station:wmo:42044:1,2015-03-17T19:00:00Z,26.1914,-97.0507,0.0,2.026326726,48.60095401,3.09,'11111222,11111222,11111222' 
TABS,ioos:station:wmo:42044:1,2015-03-17T19:30:00Z,26.1914,-97.0507,0.0,3.258527275,73.23300692,4.14,'11111222,11111222,11111222' 
TABS,ioos:station:wmo:42044:1,2015-03-17T20:00:00Z,26.1914,-97.0507,0.0,2.778488798,83.38613407,3.42,'11111222,11111222,11111222' 
TABS,ioos:station:wmo:42044:1,2015-03-17T20:30:00Z,26.1914,-97.0507,0.0,2.801142624,88.36300587,3.62,'11111222,11111222,11111222' 
TABS,ioos:station:wmo:42044:1,2015-03-17T21:00:00Z,26.1914,-97.0507,0.0,2.202044505,95.9957937,3.04,'11111222,11111222,11111222' 
TABS,ioos:station:wmo:42044:1,2015-03-17T21:30:00Z,26.1914,-97.0507,0.0,2.570175091,89.33078869,3.08,'11111222,11111222,11111222' 
TABS,ioos:station:wmo:42044:1,2015-03-17T22:00:00Z,26.1914,-97.0507,0.0,2.844802278,106.3330933,4.04,'11111222,11111222,11111222' 
TABS,ioos:station:wmo:42044:1,2015-03-17T22:30:00Z,26.1914,-97.0507,0.0,1.591131673,87.83850465,1.84,'11111222,11111222,11111222' 
TABS,ioos:station:wmo:42044:1,2015-03-17T23:00:00Z,26.1914,-97.0507,0.0,1.516080473,63.77261351,2.11,'11111222,11111222,11111222' 
TABS,ioos:station:wmo:42044:1,2015-03-17T23:30:00Z,26.1914,-97.0507,0.0,1.739022714,76.36291319,2.21,'11111222,11111222,11111222' 
TABS,ioos:station:wmo:42044:1,2015-03-18T00:00:00Z,26.1914,-97.0507,0.0,2.197635093,76.84866115,2.92,'11111222,11111222,11111222' 
TABS,ioos:station:wmo:42044:1,2015-03-18T00:30:00Z,26.1914,-97.0507,0.0,1.601530518,87.49449207,1.88,'11111222,11111222,11111222' 
TABS,ioos:station:wmo:42044:1,2015-03-18T01:00:00Z,26.1914,-97.0507,0.0,1.212023102,100.9394865,1.66,'11111222,11111222,11111222' 
TABS,ioos:station:wmo:42044:1,2015-03-18T01:30:00Z,26.1914,-97.0507,0.0,1.288603896,114.7755036,1.61,'11111222,11111222,11111222' 
TABS,ioos:station:wmo:42044:1,2015-03-18T02:00:00Z,26.1914,-97.0507,0.0,1.214001647,126.9646238,1.49,'11111222,11111222,11111222' 
TABS,ioos:station:wmo:42044:1,2015-03-18T02:30:00Z,26.1914,-97.0507,0.0,1.346476884,81.02697345,1.65,'11111222,11111222,11111222' 
TABS,ioos:station:wmo:42044:1,2015-03-18T03:00:00Z,26.1914,-97.0507,0.0,1.911282292,92.09932194,2.4,'11111222,11111222,11111222' 
TABS,ioos:station:wmo:42044:1,2015-03-18T03:30:00Z,26.1914,-97.0507,0.0,2.976927947,106.7918005,3.58,'11111222,11111222,11111222' 
TABS,ioos:station:wmo:42044:1,2015-03-18T04:00:00Z,26.1914,-97.0507,0.0,2.932319901,113.9430146,3.3,'11111222,11111222,11111222' 
TABS,ioos:station:wmo:42044:1,2015-03-18T04:30:00Z,26.1914,-97.0507,0.0,3.134134649,123.2847835,3.6,'11111222,11111222,11111222' 
TABS,ioos:station:wmo:42044:1,2015-03-18T05:00:00Z,26.1914,-97.0507,0.0,2.033248632,147.2481294,2.43,'11111222,11111222,11111222' 
TABS,ioos:station:wmo:42044:1,2015-03-18T05:30:00Z,26.1914,-97.0507,0.0,1.399785698,195.3270925,1.58,'11111222,11111222,11111222' 
TABS,ioos:station:wmo:42044:1,2015-03-18T06:00:00Z,26.1914,-97.0507,0.0,3.104094071,145.2350945,3.52,'11111222,11111222,11111222' 
TABS,ioos:station:wmo:42044:1,2015-03-18T06:30:00Z,26.1914,-97.0507,0.0,3.997411663,133.0742853,4.62,'11111222,11111222,11111222' 
TABS,ioos:station:wmo:42044:1,2015-03-18T07:00:00Z,26.1914,-97.0507,0.0,1.774063133,176.121695,2.26,'11111222,11111222,11111222' 
TABS,ioos:station:wmo:42044:1,2015-03-18T07:30:00Z,26.1914,-97.0507,0.0,2.170023041,298.3364547,2.64,'11111222,11111222,11111222' 
TABS,ioos:station:wmo:42044:1,2015-03-18T08:00:00Z,26.1914,-97.0507,0.0,1.011780609,266.6002938,1.63,'11111222,11111222,11111222' 
TABS,ioos:station:wmo:42044:1,2015-03-18T08:30:00Z,26.1914,-97.0507,0.0,1.549322433,129.2376963,1.89,'11111222,11111222,11111222' 
TABS,ioos:station:wmo:42044:1,2015-03-18T09:00:00Z,26.1914,-97.0507,0.0,2.182131985,143.7605732,2.63,'11111222,11111222,11111222' 
TABS,ioos:station:wmo:42044:1,2015-03-18T09:30:00Z,26.1914,-97.0507,0.0,1.662077014,121.9691887,2.04,'11111222,11111222,11111222' 
TABS,ioos:station:wmo:42044:1,2015-03-18T10:00:00Z,26.1914,-97.0507,0.0,1.416615685,103.0556376,1.98,'11111222,11111222,11111222' 
TABS,ioos:station:wmo:42044:1,2015-03-18T10:30:00Z,26.1914,-97.0507,0.0,3.217732121,114.4148455,3.76,'11111222,11111222,11111222' 
TABS,ioos:station:wmo:42044:1,2015-03-18T11:00:00Z,26.1914,-97.0507,0.0,2.331222855,118.4342785,2.77,'11111222,11111222,11111222' 
TABS,ioos:station:wmo:42044:1,2015-03-18T11:30:00Z,26.1914,-97.0507,0.0,3.724473117,100.6767516,4.6,'11111222,11111222,11111222' 
TABS,ioos:station:wmo:42044:1,2015-03-18T12:00:00Z,26.1914,-97.0507,0.0,2.533337719,87.05812097,3.07,'11111222,11111222,11111222' 
TABS,ioos:station:wmo:42044:1,2015-03-18T12:30:00Z,26.1914,-97.0507,0.0,2.412985702,55.98030864,2.95,'11111222,11111222,11111222' 
TABS,ioos:station:wmo:42044:1,2015-03-18T13:00:00Z,26.1914,-97.0507,0.0,2.876125867,56.19908778,3.45,'11111222,11111222,11111222' 
TABS,ioos:station:wmo:42044:1,2015-03-18T13:30:00Z,26.1914,-97.0507,0.0,4.13140412,58.96454301,4.84,'11111222,11111222,11111222' 
TABS,ioos:station:wmo:42044:1,2015-03-18T14:00:00Z,26.1914,-97.0507,0.0,5.738362136,61.02262669,6.24,'11111222,11111222,11111222' 
TABS,ioos:station:wmo:42044:1,2015-03-18T14:30:00Z,26.1914,-97.0507,0.0,4.904079934,69.71706742,5.88,'11111222,11111222,11111222' 
TABS,ioos:station:wmo:42044:1,2015-03-18T15:00:00Z,26.1914,-97.0507,0.0,3.488552709,64.16910934,4.2,'11111222,11111222,11111222' 
TABS,ioos:station:wmo:42044:1,2015-03-18T15:30:00Z,26.1914,-97.0507,0.0,3.122178726,64.58363229,3.76,'11111222,11111222,11111222' 
TABS,ioos:station:wmo:42044:1,2015-03-18T16:00:00Z,26.1914,-97.0507,0.0,3.451376537,57.78310836,4.29,'11111222,11111222,11111222' 
TABS,ioos:station:wmo:42044:1,2015-03-18T16:30:00Z,26.1914,-97.0507,0.0,2.74361076,55.09318207,3.27,'11111222,11111222,11111222' 
TABS,ioos:station:wmo:42044:1,2015-03-18T17:00:00Z,26.1914,-97.0507,0.0,3.234145946,62.16684353,3.97,'11111222,11111222,11111222' 
TABS,ioos:station:wmo:42044:1,2015-03-18T17:30:00Z,26.1914,-97.0507,0.0,2.849175319,64.42389845,3.62,'11111222,11111222,11111222' 
TABS,ioos:station:wmo:42044:1,2015-03-18T18:00:00Z,26.1914,-97.0507,0.0,3.288419073,45.86213426,4.04,'11111222,11111222,11111222' 
TABS,ioos:station:wmo:42044:1,2015-03-18T18:30:00Z,26.1914,-97.0507,0.0,3.151459979,32.42907409,3.65,'11111222,11111222,11111222' 
TABS,ioos:station:wmo:42044:1,2015-03-18T19:00:00Z,26.1914,-97.0507,0.0,3.504639782,42.10842148,3.92,'11111222,11111222,11111222' 
TABS,ioos:station:wmo:42044:1,2015-03-18T19:30:00Z,26.1914,-97.0507,0.0,3.54519393,38.35662574,3.9,'11111222,11111222,11111222' 
TABS,ioos:station:wmo:42044:1,2015-03-18T20:00:00Z,26.1914,-97.0507,0.0,3.594356688,42.97037263,4.17,'11111222,11111222,11111222' 
TABS,ioos:station:wmo:42044:1,2015-03-18T20:30:00Z,26.1914,-97.0507,0.0,4.124669684,58.58325686,4.73,'11111222,11111222,11111222' 
TABS,ioos:station:wmo:42044:1,2015-03-18T21:00:00Z,26.1914,-97.0507,0.0,4.431895757,73.07748295,4.96,'11111222,11111222,11111222' 
TABS,ioos:station:wmo:42044:1,2015-03-18T21:30:00Z,26.1914,-97.0507,0.0,3.652738699,72.30873083,3.97,'11111222,11111222,11111222' 
TABS,ioos:station:wmo:42044:1,2015-03-18T22:00:00Z,26.1914,-97.0507,0.0,3.104657791,79.23257196,3.74,'11111222,11111222,11111222' 
TABS,ioos:station:wmo:42044:1,2015-03-18T22:30:00Z,26.1914,-97.0507,0.0,3.752252657,76.59296557,4.42,'11111222,11111222,11111222' 
TABS,ioos:station:wmo:42044:1,2015-03-18T23:00:00Z,26.1914,-97.0507,0.0,2.929846412,85.30090955,3.61,'11111222,11111222,11111222' 
TABS,ioos:station:wmo:42044:1,2015-03-18T23:30:00Z,26.1914,-97.0507,0.0,3.154060874,92.90817698,3.68,'11111222,11111222,11111222' 
TABS,ioos:station:wmo:42044:1,2015-03-19T00:00:00Z,26.1914,-97.0507,0.0,3.276980317,103.2308984,3.8,'11111222,11111222,11111222' 
TABS,ioos:station:wmo:42044:1,2015-03-19T00:30:00Z,26.1914,-97.0507,0.0,3.286411417,107.167199,4.15,'11111222,11111222,11111222' 
TABS,ioos:station:wmo:42044:1,2015-03-19T01:00:00Z,26.1914,-97.0507,0.0,2.510318705,76.40622451,2.98,'11111222,11111222,11111222' 
TABS,ioos:station:wmo:42044:1,2015-03-19T01:30:00Z,26.1914,-97.0507,0.0,2.609099462,68.64678942,3.26,'11111222,11111222,11111222' 
TABS,ioos:station:wmo:42044:1,2015-03-19T02:00:00Z,26.1914,-97.0507,0.0,2.55415348,62.23065561,3.06,'11111222,11111222,11111222' 
TABS,ioos:station:wmo:42044:1,2015-03-19T02:30:00Z,26.1914,-97.0507,0.0,2.882099929,73.26229106,3.25,'11111222,11111222,11111222' 
TABS,ioos:station:wmo:42044:1,2015-03-19T03:00:00Z,26.1914,-97.0507,0.0,2.32776717,85.31771179,2.69,'11111222,11111222,11111222' 
TABS,ioos:station:wmo:42044:1,2015-03-19T03:30:00Z,26.1914,-97.0507,0.0,2.475419156,112.3175552,2.82,'11111222,11111222,11111222' 
TABS,ioos:station:wmo:42044:1,2015-03-19T04:00:00Z,26.1914,-97.0507,0.0,1.882153022,106.9912045,2.47,'11111222,11111222,11111222' 
TABS,ioos:station:wmo:42044:1,2015-03-19T04:30:00Z,26.1914,-97.0507,0.0,1.811215062,116.56541,2.9,'11111222,11111222,11111222' 
TABS,ioos:station:wmo:42044:1,2015-03-19T05:00:00Z,26.1914,-97.0507,0.0,0.0,0.0,0.0,'11111222,11111222,11111222' 
TABS,ioos:station:wmo:42044:1,2015-03-19T05:30:00Z,26.1914,-97.0507,0.0,0.0,0.0,0.0,'11111222,11111222,11111222' 
TABS,ioos:station:wmo:42044:1,2015-03-19T06:00:00Z,26.1914,-97.0507,0.0,0.0,0.0,0.0,'11111222,11111222,11111222' 
TABS,ioos:station:wmo:42044:1,2015-03-19T06:30:00Z,26.1914,-97.0507,0.0,0.0,0.0,0.0,'11111222,11111222,11111222' 
TABS,ioos:station:wmo:42044:1,2015-03-19T07:00:00Z,26.1914,-97.0507,0.0,0.0,0.0,0.0,'11111222,11111222,11111222' 
TABS,ioos:station:wmo:42044:1,2015-03-19T07:30:00Z,26.1914,-97.0507,0.0,0.01,180.0002105,0.16,'11111222,11111222,11111222' 
TABS,ioos:station:wmo:42044:1,2015-03-19T08:00:00Z,26.1914,-97.0507,0.0,0.092195445,282.5287784,1.73,'11111222,11111222,11111222' 
TABS,ioos:station:wmo:42044:1,2015-03-19T08:30:00Z,26.1914,-97.0507,0.0,0.388973007,223.958481,0.79,'11111222,11111222,11111222' 
TABS,ioos:station:wmo:42044:1,2015-03-19T09:00:00Z,26.1914,-97.0507,0.0,0.678969808,170.6766405,1.48,'11111222,11111222,11111222' 
TABS,ioos:station:wmo:42044:1,2015-03-19T09:30:00Z,26.1914,-97.0507,0.0,1.930802942,140.042755,2.61,'11111222,11111222,11111222' 
TABS,ioos:station:wmo:42044:1,2015-03-19T10:00:00Z,26.1914,-97.0507,0.0,2.087007427,129.9465015,2.48,'11111222,11111222,11111222' 
TABS,ioos:station:wmo:42044:1,2015-03-19T10:30:00Z,26.1914,-97.0507,0.0,1.808120571,130.7391024,2.19,'11111222,11111222,11111222' 
TABS,ioos:station:wmo:42044:1,2015-03-19T11:00:00Z,26.1914,-97.0507,0.0,1.773414785,121.629015,2.11,'11111222,11111222,11111222' 
TABS,ioos:station:wmo:42044:1,2015-03-19T11:30:00Z,26.1914,-97.0507,0.0,1.330601368,88.27692104,1.77,'11111222,11111222,11111222' 
TABS,ioos:station:wmo:42044:1,2015-03-19T12:00:00Z,26.1914,-97.0507,0.0,0.81394103,100.6200514,1.02,'11111222,11111222,11111222' 
TABS,ioos:station:wmo:42044:1,2015-03-19T12:30:00Z,26.1914,-97.0507,0.0,1.390143877,127.6945732,1.86,'11111222,11111222,11111222' 
TABS,ioos:station:wmo:42044:1,2015-03-19T13:00:00Z,26.1914,-97.0507,0.0,0.930053762,143.7464575,1.3,'11111222,11111222,11111222' 
TABS,ioos:station:wmo:42044:1,2015-03-19T13:30:00Z,26.1914,-97.0507,0.0,0.982344135,141.6137607,1.45,'11111222,11111222,11111222' 
TABS,ioos:station:wmo:42044:1,2015-03-19T14:00:00Z,26.1914,-97.0507,0.0,1.414390328,155.7909923,1.93,'11111222,11111222,11111222' 
TABS,ioos:station:wmo:42044:1,2015-03-19T14:30:00Z,26.1914,-97.0507,0.0,1.767088,145.1410851,2.27,'11111222,11111222,11111222' 
TABS,ioos:station:wmo:42044:1,2015-03-19T15:00:00Z,26.1914,-97.0507,0.0,2.922498931,121.5693182,3.47,'11111222,11111222,11111222' 
TABS,ioos:station:wmo:42044:1,2015-03-19T15:30:00Z,26.1914,-97.0507,0.0,2.194948747,137.9548886,2.69,'11111222,11111222,11111222' 
TABS,ioos:station:wmo:42044:1,2015-03-19T16:00:00Z,26.1914,-97.0507,0.0,2.147556751,147.9383418,2.67,'11111222,11111222,11111222' 
TABS,ioos:station:wmo:42044:1,2015-03-19T16:30:00Z,26.1914,-97.0507,0.0,1.820988742,128.7584159,2.12,'11111222,11111222,11111222' 
TABS,ioos:station:wmo:42044:1,2015-03-19T17:00:00Z,26.1914,-97.0507,0.0,2.038283592,127.8260082,2.31,'11111222,11111222,11111222' 
TABS,ioos:station:wmo:42044:1,2015-03-19T17:30:00Z,26.1914,-97.0507,0.0,1.172731853,155.8393518,1.45,'11111222,11111222,11111222' 
TABS,ioos:station:wmo:42044:1,2015-03-19T18:00:00Z,26.1914,-97.0507,0.0,1.457978052,153.9624671,1.77,'11111222,11111222,11111222' 
TABS,ioos:station:wmo:42044:1,2015-03-19T18:30:00Z,26.1914,-97.0507,0.0,1.284133949,146.4339702,1.59,'11111222,11111222,11111222' 
TABS,ioos:station:wmo:42044:1,2015-03-19T19:00:00Z,26.1914,-97.0507,0.0,0.970824392,131.2417688,1.24,'11111222,11111222,11111222' 